This is the latest recevied weather packets stored in our database for station/object DM4XI-13. If no packets are shown the sender has not sent any weather packets the latest 10 day(s).
| Time | Temp. | Humidity | Pressure | Rain* | Wind** | Luminosity | Snow |
|---|---|---|---|---|---|---|---|
| 1777861979 | 15.56° C | 54% | 1012.3 hPa | 0 mm | 0.89 m/s, 293° | 0 W/m² | - |
| 1777861918 | 15.56° C | 54% | 1012.2 hPa | 0 mm | 1.79 m/s, 312° | 0 W/m² | - |
| 1777861857 | 15.56° C | 54% | 1012.5 hPa | 0 mm | 0.45 m/s, 311° | 0 W/m² | - |
| 1777861796 | 15.56° C | 54% | 1012.2 hPa | 0 mm | 1.79 m/s, 340° | 0 W/m² | - |
| 1777861735 | 15.56° C | 54% | 1012.5 hPa | 0 mm | 1.34 m/s, 295° | 0 W/m² | - |
| 1777861674 | 15.56° C | 54% | 1012.5 hPa | 0 mm | 1.34 m/s, 316° | 0 W/m² | - |
| 1777861613 | 15.56° C | 54% | 1012.6 hPa | 0 mm | 1.34 m/s, 297° | 0 W/m² | - |
| 1777861552 | 15.56° C | 54% | 1012.7 hPa | 0 mm | 1.79 m/s, 288° | 0 W/m² | - |
| 1777861491 | 15.56° C | 55% | 1012.7 hPa | 0 mm | 0.89 m/s, 254° | 0 W/m² | - |
| 1777861430 | 15.56° C | 54% | 1012.8 hPa | 0 mm | 1.34 m/s, 267° | 0 W/m² | - |
| 1777861369 | 15.56° C | 54% | 1012.7 hPa | 0 mm | 1.34 m/s, 273° | 0 W/m² | - |
| 1777861308 | 15.56° C | 54% | 1012.7 hPa | 0 mm | 0.89 m/s, 273° | 0 W/m² | - |
| 1777861247 | 15.56° C | 53% | 1012.6 hPa | 0 mm | 0.89 m/s, 296° | 0 W/m² | - |
| 1777861186 | 15.56° C | 53% | 1012.5 hPa | 0 mm | 1.79 m/s, 293° | 0 W/m² | - |
| 1777861125 | 15.56° C | 53% | 1012.5 hPa | 0 mm | 0.89 m/s, 329° | 0 W/m² | - |
| 1777861064 | 15.56° C | 53% | 1012.8 hPa | 0 mm | 1.79 m/s, 278° | 0 W/m² | - |
| 1777861003 | 15.56° C | 53% | 1012.7 hPa | 0 mm | 0.89 m/s, 263° | 0 W/m² | - |
| 1777860942 | 15.56° C | 53% | 1012.7 hPa | 0 mm | 0.45 m/s, 187° | 0 W/m² | - |
| 1777860881 | 15.56° C | 53% | 1012.9 hPa | 0 mm | 1.34 m/s, 254° | 0 W/m² | - |
| 1777860820 | 15.56° C | 54% | 1012.8 hPa | 0 mm | 0.89 m/s, 236° | 0 W/m² | - |
| 1777860759 | 15.56° C | 54% | 1012.7 hPa | 0 mm | 0.45 m/s, 296° | 0 W/m² | - |
| 1777860698 | 15.56° C | 54% | 1012.8 hPa | 0 mm | 1.34 m/s, 240° | 0 W/m² | - |
| 1777860637 | 16.11° C | 54% | 1012.6 hPa | 0 mm | 0.45 m/s, 182° | 0 W/m² | - |
| 1777860576 | 15.56° C | 54% | 1012.6 hPa | 0 mm | 1.34 m/s, 301° | 0 W/m² | - |
| 1777860515 | 15.56° C | 54% | 1012.5 hPa | 0 mm | 1.34 m/s, 275° | 0 W/m² | - |
* Rain latest hour (hover to see other rain measurements)
** Current wind speed in m/s (hover to see current wind gust speed)